#timestamp,LO_Frequency,Hit,StdDev 
1637863215.4,286047001.1,N
1637863235.2,286046998.7,N
1637863255.1,286046998.3,N
1637863256.0,286046998.3,N
1637863275.8,286046998.1,N
1637863295.6,286046998.3,N
1637863315.5,286046999.6,N
1637863335.3,286046998.7,N
1637863355.1,286047000.0,N
1637863375.9,286047000.3,N
1637863395.7,286047001.1,N
1637863415.6,286046998.3,N
1637863435.4,286046998.7,N
1637863455.2,286046998.5,N
1637863475.1,286046999.2,N
1637863476.0,286046999.2,N
1637863495.8,286046999.2,N
1637863515.6,286047001.2,N
1637863535.5,286047000.9,N
1637863555.3,286047000.4,N
1637863575.1,286047000.5,N
1637863595.9,286047000.1,N
1637863615.7,286046999.7,N
1637863635.5,286047000.3,N
1637863655.4,286046999.8,N
1637863675.2,286047002.6,N
1637863695.1,286047002.8,N
1637863696.0,286047002.8,N
1637863715.8,286047000.0,N
1637863735.6,286047000.0,N
1637863755.5,286047002.7,N
1637863775.3,286046999.8,N
1637863795.1,286047000.5,N
1637863815.9,286046999.9,N
1637863835.7,286047000.6,N
1637863855.6,286047000.0,N
1637863875.4,286046998.6,N
1637863895.2,286046998.5,N
1637863915.1,286046999.9,N
1637863916.0,286046999.9,N
1637863935.8,286047000.3,N
1637863955.6,286046998.3,N
1637863975.5,286047001.2,N
1637863995.3,286047000.4,N
1637864015.1,286046999.8,N
1637864035.9,286047000.1,N
1637864055.7,286047000.3,N
1637864075.6,286047000.1,N
1637864095.4,286047000.0,N
1637864115.2,286047001.0,N
1637864135.1,286047001.1,N
1637864136.0,286047001.1,N
1637864155.8,286047000.0,N
1637864175.6,286046999.7,N
1637864195.5,286046999.8,N
1637864215.3,286047002.4,N
1637864235.1,286047001.8,N
1637864255.9,286047001.6,N
1637864275.7,286047000.0,N
1637864295.6,286046999.7,N
1637864315.4,286047001.9,N
1637864335.2,286047002.5,N
1637864355.1,286047001.7,N
1637864356.0,286047001.7,N
1637864375.8,286047002.0,N
1637864395.6,286047001.7,N
1637864415.5,286047004.4,Y
1637864435.3,286047001.5,P
1637864455.2,286047001.7,P
1637864475.9,286047004.4,P
1637864495.7,286047004.1,N
1637864515.6,286047002.6,N
1637864535.4,286047002.5,N
1637864555.2,286047001.4,N
1637864575.1,286047004.2,Y
1637864576.0,286047004.2,P
1637864595.8,286047002.7,N
1637864615.6,286047000.2,N
1637864635.5,286047001.9,N
1637864655.3,286047002.4,N
1637864675.2,286047000.0,N
1637864695.9,286047000.2,N
1637864715.7,286047002.5,N
1637864735.6,286047002.5,N
1637864755.4,286047002.5,N
1637864775.2,286046999.9,N
1637864795.1,286047000.5,N
1637864796.0,286047000.5,N
1637864815.8,286047000.1,N
1637864835.6,286047001.0,N
1637864855.5,286047000.0,N
1637864875.3,286047000.1,N
1637864895.2,286047002.3,N
1637864915.9,286047000.5,N
1637864935.7,286047000.2,N
1637864955.6,286046999.7,N
1637864975.4,286047000.2,N
1637864995.2,286047000.5,N
1637865015.1,286047001.0,N
1637865016.0,286047001.0,N
1637865035.8,286047001.2,N
1637865055.6,286047000.9,N
1637865075.5,286047000.7,N
1637865095.3,286047001.2,N
1637865115.1,286047000.6,N
1637865135.9,286047000.3,N
1637865155.7,286046998.5,N
1637865175.6,286047001.0,N
1637865195.4,286047000.5,N
1637865215.2,286046999.9,N
1637865235.1,286047000.9,N
1637865236.0,286047000.9,N
1637865255.8,286047000.5,N
1637865275.6,286047002.7,Y
1637865295.5,286047000.0,P
1637865315.3,286047000.5,N
1637865335.2,286047000.7,N
1637865355.9,286046998.8,Y
1637865375.7,286046998.9,P
1637865395.6,286046997.2,P
1637865415.4,286046997.4,N
1637865435.2,286046996.6,N
1637865455.1,286046996.6,N
1637865456.0,286046996.6,N
1637865475.8,286046999.0,N
1637865495.7,286046998.9,N
1637865515.5,286046998.8,N
1637865535.3,286046998.4,N
1637865555.2,286046998.5,N
1637865575.9,286046998.9,N
1637865595.7,286046996.5,Y
1637865615.6,286046999.9,P
1637865635.4,286047000.6,N
1637865655.2,286047001.1,N
1637865675.1,286047000.7,N
1637865676.0,286047000.7,N
1637865695.8,286047000.2,N
1637865715.7,286047000.6,N
1637865735.5,286046998.2,N
1637865755.3,286047000.6,N
1637865775.2,286046998.1,N
1637865795.9,286046998.9,N
1637865815.7,286046998.9,N
1637865835.6,286047000.5,N
1637865855.4,286047000.9,N
1637865875.2,286046998.7,N
1637865895.1,286047000.5,N
1637865896.0,286047000.5,N
1637865915.8,286046999.9,N
1637865935.7,286046999.7,N
1637865955.5,286047000.9,N
1637865975.3,286047000.0,N
1637865995.2,286047000.5,N
1637866015.0,286047000.5,N
1637866015.9,286047000.5,N
1637866035.7,286047000.7,N
1637866055.6,286047001.2,N
1637866075.4,286046998.2,N
1637866095.3,286046998.7,N
1637866115.1,286047001.1,N
1637866116.0,286047001.1,N
1637866135.8,286046998.5,N
1637866155.7,286046999.9,N
1637866175.5,286047001.0,N
1637866195.3,286046998.6,N
1637866215.2,286047001.0,N
1637866235.0,286047001.0,N
1637866235.9,286047001.0,N
1637866255.7,286046999.7,N
1637866275.6,286047000.3,N
1637866295.4,286047000.0,N
1637866315.3,286047000.0,N
1637866335.1,286047000.5,N
1637866336.0,286047000.5,N
1637866355.8,286046998.8,N
1637866375.7,286046999.3,N
1637866395.5,286046998.4,N
1637866415.3,286046998.9,N
1637866435.2,286046999.6,N
1637866455.0,286046998.4,N
1637866455.9,286046998.4,N
1637866475.7,286046999.7,N
1637866495.6,286047001.1,N
1637866515.4,286046999.3,N
1637866535.3,286046998.9,N
1637866555.1,286047001.0,N
1637866556.0,286047001.0,N
1637866575.8,286047000.1,N
1637866595.7,286046998.5,N
1637866615.5,286046998.8,N
1637866635.3,286046998.9,N
1637866655.2,286046999.3,N
1637866675.0,286046996.7,Y
1637866675.9,286046996.7,P
1637866695.7,286046997.4,N
1637866715.6,286046999.1,N
1637866735.4,286047000.7,N
1637866785.3,286047001.1,E
1637866795.2,286046998.4,N
